Location: The C. Gantt Observatory
(33.6981°N, 81.6836°W)
Time: 07:18:03
(UTC-04:00)

Iridium 30 - Visible Passes

Search period start: 24 October 2014 00:00
Search period end: 02 November 2014 23:00
Orbit: 776 x 779 km, 86.4° (Epoch: 23 October)

Date Brightness Start Highest point End Pass type
(mag) Time Alt. Az. Time Alt. Az. Time Alt. Az.
31 Oct 7.1 20:56:56 10° S 20:59:10 26° SSW 20:59:10 26° SSW visible
01 Nov 5.5 20:23:27 10° S 20:28:06 62° ESE 20:28:06 62° ESE visible
01 Nov 8.5 22:08:16 10° W 22:08:47 11° W 22:08:47 11° W visible
02 Nov 8.5 05:59:31 10° NE 06:02:14 14° ENE 06:04:56 10° ESE visible
02 Nov 6.1 18:50:35 10° SSE 18:55:11 33° E 18:59:47 10° NNE visible
02 Nov 7.7 20:31:54 10° SW 20:35:53 22° W 20:39:53 10° NNW visible
